Tracking 19706 objects as of 16-Jun-2019
HD Live streaming from Space Station
objects crossing your sky now

CZ-4 DEB

Track CZ-4 DEB now!
10-day predictions


NORAD ID: 26152
Int'l Code: 1999-057AN
Perigee: 734.5 km
Apogee: 1,529.8 km
Inclination: 99.2 °
Period: 107.8 minutes
Semi major axis: 7503 km
RCS: 0.0141 m2 (small)
Launch date: October 14, 1999
Source: People's Republic of China (PRC)
Launch site: Taiyaun Space Center, China (TSC)

Note: This is SATELLITE DEBRIS
aabbcc
Your satellite tracking list
Your tracking list is empty




NASA's NSSDC Master Catalog

Two Line Element Set (TLE):
1 26152U 99057AN  19165.55363976 +.00000086 +00000-0 +10799-3 0  9995
2 26152 099.1627 017.4980 0529996 177.1639 256.2182 13.35791828936130
Source of the keplerian elements: AFSPC